Regional Weather Roundup
Issued by NWS Raleigh/Durham, NC

Home | Current Version | Previous Version | Text Only | Print | Product List | Glossary On
Versions: 1 2 3 4 5 6 7 8 9 10 11 12 13 14 15 16 17 18 19 20 21 22 23 24 25 26 27 28 29 30 31 32 33 34 35 36 37 38 39 40 41 42 43 44 45 46 47 48 49 50
000
ASUS42 KRAH 010010
RWRRAH
NORTH CAROLINA WEATHER ROUNDUP
NATIONAL WEATHER SERVICE RALEIGH NC
800 PM EDT TUE MAY 31 2016

NOTE: "FAIR" INDICATES FEW OR NO CLOUDS BELOW 12,000 FEET WITH NO
SIGNIFICANT WEATHER AND/OR OBSTRUCTIONS TO VISIBILITY.

NCZ001-053-055-056-065-067-010100-
WESTERN NORTH CAROLINA

CITY           SKY/WX    TMP DP  RH WIND       PRES   REMARKS
ASHEVILLE      MOCLDY    74  62  66 N5        30.04R
JEFFERSON      PTCLDY    67  62  85 CALM      30.08S
MORGANTON      MOCLDY    69  68  94 N3        30.04R
HICKORY        CLOUDY    70  67  90 NE5       29.99S
RUTHERFORDTON  MOCLDY    69  69  99 NE6       29.99R
MOUNT AIRY     CLEAR     78  69  73 CALM      30.00S
BOONE          CLOUDY    65  64  94 CALM      30.10R
$$

NCZ021-022-025-041-071-084-088-010100-
CENTRAL NORTH CAROLINA

CITY           SKY/WX    TMP DP  RH WIND       PRES   REMARKS
CHARLOTTE      TSTM      70  67  90 NW8       29.97R
GREENSBORO     PTCLDY    79  63  57 E7        29.95R
WINSTON-SALEM  CLEAR     80  63  55 NE5       29.97R
RALEIGH-DURHAM CLOUDY    80  67  64 E7        29.94R
FORT BRAGG     CLOUDY    79  70  73 E7        29.92R
FAYETTEVILLE   CLOUDY    78  69  73 E7        29.92R
BURLINGTON     PTCLDY    79  66  64 E5        29.95R
LAURINBURG     CLOUDY    79  70  74 SE7       29.92R
$$

NCZ011-015-027-028-043-044-047-080-103-010100-
NORTHEASTERN NORTH CAROLINA

CITY           SKY/WX    TMP DP  RH WIND       PRES   REMARKS
ROCKY MT-WILSO PTCLDY    76  70  82 SE3       29.94R
GREENVILLE     PTCLDY    73  73 100 E5        29.95S
WASHINGTON     CLOUDY    74  71  92 E6        29.94R
ELIZABETH CITY PTCLDY    73  67  81 E9        29.96R
MANTEO         CLOUDY    70  69  95 E12       29.96S
CAPE HATTERAS  MOCLDY    74  71  91 NE6       29.94R
$$

NCZ078-087-090-091-093-098-101-010100-
SOUTHEASTERN NORTH CAROLINA

CITY           SKY/WX    TMP DP  RH WIND       PRES   REMARKS
LUMBERTON      MOCLDY    78  69  73 E6        29.91R
GOLDSBORO      CLOUDY    74  74 100 E6        29.92R
KENANSVILLE    NOT AVBL
NEW BERN       CLOUDY    74  71  91 NE7       29.94R
CHERRY POINT   CLOUDY    75  72  90 NE9       29.93R
BEAUFORT       CLOUDY    77  73  87 E8        29.92R
JACKSONVILLE   CLOUDY    75  72  90 NE7       29.91R
WILMINGTON     CLOUDY    74  72  93 NE6       29.89S
$$




USA.gov is the U.S. government's official web portal to all federal, state and local government web resources and services.